Regional Weather Roundup
Issued by NWS

Home | Current Version | Previous Version | Graphics & Text | Print | Product List | Glossary On
Versions: 1 2 3 4 5 6 7 8 9 10 11 12 13 14 15 16 17 18 19 20 21 22 23 24 25 26 27 28 29 30 31 32 33 34 35 36 37 38 39 40 41 42 43 44 45 46 47 48 49 50
250
ASUS43 KIND 250109
RWRIN

WEATHER ROUNDUP FOR INDIANA
NATIONAL WEATHER SERVICE INDIANAPOLIS IN
900 PM EDT TUE APR 24 2018

NOTE: "FAIR" INDICATES FEW OR NO CLOUDS BELOW 12,000 FEET WITH NO
SIGNIFICANT WEATHER AND/OR OBSTRUCTIONS TO VISIBILITY.

* - STATION DOES NOT REPORT WEATHER SUCH AS PRECIPITATION OR FOG.

+ - STATION NOT QUALITY CONTROLLED BY THE NATIONAL WEATHER SERVICE.
    USE DATA WITH CAUTION...ESPECIALLY DEWPOINT AND RELATIVE
    HUMIDITY OBSERVATIONS.

INZ001>003-010>013-019-020-250200-
NORTHWEST INDIANA

CITY           SKY/WX    TMP DP  RH WIND       PRES   REMARKS
GARY /AIRPORT/ PTCLDY    46  43  87 N5        30.01S
KNOX *+        CLOUDY    54  48  82 N7        29.97S
LA PORTE +     CLOUDY    53  48  81 N9        29.99R
MICHIGAN CITY+ CLOUDY    50  46  87 NE6       29.99S
MONTICELLO +   CLOUDY    57  49  75 N7        29.96R
RENSSELAER +   CLOUDY    57  46  67 N6        29.97S
VALPARAISO     CLOUDY    55  48  77 N6        29.98S

$$

LMZ046-743>745-250200-
SOUTHERN LAKE MICHIGAN

STATION/POSITION TIME  TEMP    WIND        PRES    WAVE
                       AIR SEA DIR/SP/G            HT
                 (UTC) (F)     (DEG/KT/KT) (MB)    (FT)
BURNS HARBOR     0040   44      CALM  /  3 1016.3S
MICHIGAN CITY    0040   45     360/  1/  2   N/A

$$

INZ004-005-014>016-021>024-250200-
NORTH CENTRAL INDIANA

CITY           SKY/WX    TMP DP  RH WIND       PRES   REMARKS
ELKHART        CLOUDY    57  48  72 CALM      29.97R
GOSHEN         CLOUDY    56  50  80 NE6       29.96S
LOGANSPORT +   CLOUDY    54  50  87 N5        29.97R
PERU/GRISSOM   CLOUDY    55  55 100 N3        29.94S
ROCHESTER +    CLOUDY    57  52  82 N3        29.97R
SOUTH BEND     CLOUDY    55  48  77 N8        29.98S
WARSAW +       CLOUDY    54  50  87 NE3       29.96S

$$

INZ006>009-017-018-025>027-250200-
NORTHEAST INDIANA

CITY           SKY/WX    TMP DP  RH WIND       PRES   REMARKS
ANGOLA *+      CLOUDY    52  50  93 E7        29.96S FOG
AUBURN +       CLOUDY    52  50  93 NE7       29.97R FOG
FORT WAYNE     CLOUDY    54  52  93 NE7       29.96R
HUNTINGTON +   CLOUDY    53  52  96 N7        29.95S

$$

INZ028-029-035-036-043>045-051>053-250200-
WEST CENTRAL INDIANA

CITY           SKY/WX    TMP DP  RH WIND       PRES   REMARKS
CRAWFORDSVL +  CLOUDY    54  52  92 N5        29.96R
GREENCASTLE +  CLOUDY    54  50  87 N5        29.96R
LAFAYETTE      CLOUDY    57  51  80 CALM      29.96R
TERRE HAUTE    CLOUDY    59  52  77 N5        29.96R

$$

INZ030>032-037>040-046>048-054>057-064-065-250200-
CENTRAL INDIANA

CITY           SKY/WX    TMP DP  RH WIND       PRES   REMARKS
COLUMBUS       LGT RAIN  54 N/A N/A N6        29.94R FOG
FISHERS *+     CLOUDY    52  52 100 N7        29.95
FRANKFORT +    CLOUDY    57  54  89 NE6       29.97R
GREENWOOD *+   CLOUDY    53  52  96 N8        29.95R
INDIANAPOLIS   CLOUDY    55  52  89 N9        29.94R
-EAGLE CREEK   CLOUDY    55  51  86 N6        29.94R
KOKOMO +       CLOUDY    54  51  90 NE5       29.96S
MARION +       CLOUDY    53  51  94 N3        29.95S
MT COMFORT *+  CLOUDY    52  52 100 N8        29.94R
SHELBYVILLE    CLOUDY    55  52  89 N6        29.93R
ZIONSVILLE +   CLOUDY    52  51  97 N6        29.95S

$$

INZ033-034-041-042-049-050-058-059-250200-
EAST CENTRAL INDIANA

CITY           SKY/WX    TMP DP  RH WIND       PRES   REMARKS
MUNCIE         CLOUDY    55  53  93 N9        29.93S
RICHMOND +     CLOUDY    52  52 100 N3        29.92R

$$

INZ060-061-067>069-081>083-085>088-250200-
SOUTHWEST INDIANA

CITY           SKY/WX    TMP DP  RH WIND       PRES   REMARKS
EVANSVILLE     CLOUDY    57  55  93 NW5       29.96R
HUNTINGBURG +  LGT RAIN  55  54  96 NW6       29.95S
WASHINGTON +   CLOUDY    55  54  94 NW5       29.96R

$$

INZ062-063-066-070>080-084-089>092-250200-
SOUTH CENTRAL AND SOUTHEAST INDIANA

CITY           SKY/WX    TMP DP  RH WIND       PRES   REMARKS
BATESVILLE +   CLOUDY    54  54 100 MISG      29.91S
BLOOMINGTON    LGT RAIN  55  54  96 N7        29.94S FOG
FRENCH LICK *+ CLOUDY    54 N/A N/A CALM      29.95R
MADISON *+     CLOUDY    55  52  88 CALM      29.92S
NORTH VERNON + CLOUDY    52  52 100 NW6       29.93R
SEYMOUR +      RAIN      55  55 100 N6        29.93R

$$





USA.gov is the U.S. government's official web portal to all federal, state and local government web resources and services.